Location: Coed Ely
(51.5661°N, 3.4150°W)
Time: 03:14:29
(UTC+00:00)

PSLV R/B - Pass Details

Date: 28 January 2021
Orbit: 568 x 598 km, 98.2° (Epoch: 24 February)

Event Time Altitude Azimuth Distance (km) Brightness Sun altitude
Exits shadow 18:28:23 - 27° (NNE) 1,993 6.3 -14.3°
Reaches altitude 10° 18:28:30 10° 27° (NNE) 1,950 6.3 -14.3°
Maximum altitude 18:32:31 41° 98° (E) 873 4.4 -14.9°
Drops below altitude 10° 18:36:29 10° 170° (S) 1,929 6.6 -15.5°
Sets 18:38:44 0° 177° (S) 2,823 7.5 -15.8°
